Find Starlink 38175

NORAD ID: 100161 Int'l Des: 2026-171 Owner: SPXS Country: US Constellation: starlink operational

現在のビュー

3D地球を読み込み中...

About Starlink 38175

Starlink 38175 (NORAD 100161) is a starlink constellation satellite (v2 mini) launched Jul 24, 2026 by SPXS of US. with a mass of 575.00 kg.

次回通過

Passes for default location (London). Set your location on the main map for personalized predictions.

高度履歴

Loading altitude history...

軌道要素

1 A0161U 26171P 26223.65612571 .00082951 00000-0 55121-3 0 9995
2 A0161 97.2838 255.3544 0000538 123.9258 236.2059 15.75207810 2703
Epoch: Aug 11, 2026 • Age: 17 hours

現在のステータス

高度 350.4 km
遠地点 / 近地点 N/A
速度 7.70 km/s
衛星直下点 -15.47°S, 170.52°E
打ち上げ日 Jul 24, 2026
運用期間 18 days
タイプ internet

技術仕様

分類 Payload
質量 575.00 kg
乾燥質量 530.00 kg
総質量 575.00 kg
長さ 0.30 m
直径 4.10 m
スパン 29.00 m
形状 Box
製造者 SPXS
バスタイプ Starlink V2MO
フェーズステータス In Orbit
所有者/国 SPXS/US

Most Searched